Regional Weather Roundup
Issued by NWS

Home | Current Version | Previous Version | Text Only | Print | Product List | Glossary Off
Versions: 1 2 3 4 5 6 7 8 9 10 11 12 13 14 15 16 17 18 19 20 21 22 23 24 25 26 27 28 29 30 31 32 33 34 35 36 37 38 39 40 41 42 43 44 45 46 47 48 49 50

000
ASUS45 KBOU 111807
RWRCO

WEATHER ROUNDUP FOR COLORADO
NATIONAL WEATHER SERVICE DENVER/BOULDER CO
1100 AM MST THU FEB 11 2016

NOTE: "FAIR" INDICATES FEW OR NO CLOUDS BELOW 12000 FEET WITH NO
SIGNIFICANT WEATHER AND/OR OBSTRUCTIONS TO VISIBILITY.

COZ001>005-013-030-031-111900-
...NORTHWEST COLORADO...

CITY           SKY/WX    TMP DP  RH WIND       PRES   REMARKS
CRAIG          CLOUDY    20  13  74 CALM      30.42R
HAYDEN         CLOUDY    25  12  58 E12       30.39S WCI  14
MEEKER         CLOUDY    27  15  61 CALM      30.41F
MOUNT WERNER   NOT AVBL
STEAMBOAT SPGS CLOUDY    22  13  67 CALM      30.40F
WALDEN         CLOUDY    36  18  48 S3        30.36S
$$

COZ006>008-011-111900-
...WEST CENTRAL VALLEYS...

CITY           SKY/WX    TMP DP  RH WIND       PRES   REMARKS
GRAND JUNCTION CLOUDY    36  23  59 CALM      30.44S
MONTROSE       SUNNY     37  18  46 CALM      30.45F
EAGLE          NOT AVBL
RIFLE          CLOUDY    29  16  58 CALM      30.46S
DELTA          SUNNY     39  22  51 E3        30.46S
NUCLA          SUNNY     36  19  51 CALM      30.48S
$$

COZ017>023-064>068-111900-
...SOUTHWEST COLORADO...

CITY           SKY/WX    TMP DP  RH WIND       PRES   REMARKS
DURANGO        SUNNY     33  19  56 NE3       30.41R
CORTEZ         SUNNY     40  14  34 S3        30.42S
PAGOSA SPRINGS SUNNY     42   7  23 CALM      30.41S
TELLURIDE      CLOUDY    40  10  29 CALM      30.48S
WOLF CREEK PAS SUNNY     36  -8  15 CALM      30.55S
$$

COZ009-010-012-014-032>034-037-058>063-111900-
...CENTRAL COLORADO...

CITY           SKY/WX    TMP DP  RH WIND       PRES   REMARKS
ASPEN          CLOUDY    38  16  40 NW3       30.42S
BUENA VISTA    CLOUDY    41  15  34 SE8       30.32F
COPPER MTN     CLOUDY    34  -2  21 W17G30    30.49R WCI  23
BERTHOUD PASS  FAIR      25  14  63 NW40G51   30.40F WCI   6
COTTONWOOD PAS CLOUDY    45  -2  14 S7        30.37S
GUNNISON       CLOUDY    -2 -11  65 CALM      30.56F
KREMMLING      CLOUDY    10   1  67 CALM      30.48F
LEADVILLE      CLOUDY    38   4  24 NW17G26   30.42R
MONARCH PASS   CLOUDY    27   5  39 W43G49    30.53S WCI   8
SALIDA         NOT AVBL
SUNLIGHT       CLOUDY    36  10  35 CALM      30.53
WILKERSON PASS CLOUDY    36   0  21 CALM      30.43R
$$

COZ069>075-111900-
...SAN LUIS VALLEY/SANGRE DE CRISTO MOUNTAINS...

CITY           SKY/WX    TMP DP  RH WIND       PRES   REMARKS
ALAMOSA        SUNNY     37  14  38 CALM      30.40F
LA VETA PASS   CLOUDY    39   9  28 S13G26    30.38F
SAGUACHE       SUNNY     39  18  41 SE8       30.41S
$$

COZ035-036-038>040-111900-
...NORTHERN COLORADO FRONT RANGE...

CITY           SKY/WX    TMP DP  RH WIND       PRES   REMARKS
DENVER INTL AP CLOUDY    57  19  22 SW13      30.13S
DMNS CITY PARK   N/A     61  13  15 SW6G14    30.14S
AURORA         PTSUNNY   58  15  18 W9        30.16F
FRONT RANGE AP PTSUNNY  N/A N/A N/A MISG      30.14F
ERIE MUNI ARPT CLOUDY    62  17  17 W12G20    30.13S
BOULDER MUN AP CLOUDY    61  18  18 W17G23    30.12F
CENTENNIAL     CLOUDY    58  12  16 W8        30.16F
BROOMFIELD     PTSUNNY   63  12  14 W17       30.15F
FORT COLLINS   CLOUDY    39  25  56 NE5       30.14R
LONGMONT       CLOUDY    63  24  22 CALM      30.12F
$$

COZ041-046-047-076>085-087-088-111900-
...PIKES PEAK/PALMER DIVIDE AND SOUTHERN FOOTHILLS...

CITY           SKY/WX    TMP DP  RH WIND       PRES   REMARKS
COLO. SPRINGS  CLOUDY    49  17  28 CALM      30.21S
A. F. ACADEMY  NOT AVBL
SCHRIEVER AFB  NOT AVBL
ELLICOTT       LGT RAIN N/A N/A N/A W7        30.18F
FALCON         NOT AVBL
FORT CARSON    NOT AVBL
LIMON          CLOUDY    44  23  43 NE5       30.16F
MONUMENT HILL  CLOUDY    46  19  34 W7        30.23S
TRINIDAD       SUNNY     60  10  14 VRB5      30.21F
$$

COZ042>045-048>051-090-091-111900-
...NORTHEAST COLORADO...

CITY           SKY/WX    TMP DP  RH WIND       PRES   REMARKS
GREELEY ARPT   CLOUDY    39  28  65 CALM      30.15S
AKRON          CLOUDY    47  28  47 NW9       30.12R
BURLINGTON     CLOUDY    49  27  42 SW15      30.12F
WRAY           NOT AVBL
STERLING       CLOUDY    45  32  61 SW8       30.12R
HOLYOKE        CLOUDY    46  32  57 W9        30.10S
FORT MORGAN    CLOUDY    48  23  37 W6        30.14F
$$

COZ086-089-092>099-111900-
...SOUTHEAST COLORADO...

CITY           SKY/WX    TMP DP  RH WIND       PRES   REMARKS
PUEBLO         CLOUDY    57  19  22 CALM      30.17F
LA JUNTA       SUNNY     54  25  32 VRB5      30.17F
LAMAR          SUNNY     58  25  28 W7        30.15F
SPRINGFIELD      N/A     61  18  18 SW9       30.18F
$$



USA.gov is the U.S. government's official web portal to all federal, state and local government web resources and services.